Regional Weather Roundup
Issued by NWS Cleveland, OH

Home | Current Version | Previous Version | Text Only | Print | Product List | Glossary Off
Versions: 1 2 3 4 5 6 7 8 9 10 11 12 13 14 15 16 17 18 19 20 21 22 23 24 25 26 27 28 29 30 31 32 33 34 35 36 37 38 39 40 41 42 43 44 45 46 47 48 49 50

000
ASUS41 KCLE 041800
RWRCLE
OHIO REGIONAL WEATHER ROUNDUP
NATIONAL WEATHER SERVICE WILMINGTON, OH
200 PM EDT TUE AUG 04 2015

NOTE: "FAIR" INDICATES FEW OR NO CLOUDS BELOW 12,000 FEET WITH NO
SIGNIFICANT WEATHER AND/OR OBSTRUCTIONS TO VISIBILITY.

OHZ001>008-015>018-024>027-034-035-043-044-041900-
   NORTHWEST OHIO

CITY           SKY/WX    TMP DP  RH WIND       PRES   REMARKS
DEFIANCE       MOSUNNY   80  55  42 NW12      29.96S
FINDLAY        MOSUNNY   79  55  43 W14       29.96S
TOLEDO EXPRESS MOSUNNY   79  55  43 W14G22    29.95R
TOLEDO EXEC    MOSUNNY   80  53  39 W17G24    29.95S
LIMA           MOSUNNY   80  56  43 W14G20    29.98F
$$

OHZ009>014-019>023-028>033-038-089-041900-
   NORTHEAST OHIO

CITY           SKY/WX    TMP DP  RH WIND       PRES   REMARKS
CLE-HOPKINS    MOSUNNY   79  53  40 W14G28    29.97S
CLE-LAKEFRONT  MOSUNNY   77  58  51 W9        29.94S
CUY CO. ARPT   NOT AVBL
LORAIN-ELYRIA  SUNNY     77  55  46 W10G20    29.97S
ASHTABULA      PTSUNNY   79  54  41 W12       29.95F
AKRON-CANTON   MOSUNNY   81  52  36 SW10      29.97F
WOOSTER        NOT AVBL
MANSFIELD      MOSUNNY   79  54  41 SW9       29.99S
YOUNGSTOWN     PTSUNNY   78  51  38 NW12G18   29.96F
$$

OHZ042-051>053-060>062-070>072-077>081-041900-
  SOUTHWEST OHIO

CITY           SKY/WX    TMP DP  RH WIND       PRES   REMARKS
CINC-COVINGTON PTSUNNY   83  57  41 W9        29.99F
CINC-LUNKEN    MOSUNNY   83  62  49 W12       29.98S
HAMILTON       SUNNY     83  60  45 W8        29.99F
DAYTON         NOT AVBL
WRIGHT-PAT AFB SUNNY     81  55  41 W5        29.98F
DAYTON GENERAL SUNNY     81  56  42 W6        29.99S
WILMINGTON     MOSUNNY   81  59  47 W10       29.99S
$$

OHZ036-037-039>041-045>050-054>059-063>069-073>076-082>088-041900-
  CENTRAL AND SOUTHEAST OHIO

CITY           SKY/WX    TMP DP  RH WIND       PRES   REMARKS
COLUMBUS       MOSUNNY   81  55  40 S5        29.97F
OSU AIRPORT    SUNNY     80  58  46 W13       29.98F
BOLTON FIELD   SUNNY     79  61  53 W3        29.99F
RICKENBACK AFB NOT AVBL
NEWARK         MOSUNNY   81  57  43 SW8       29.98S
MARION         MOSUNNY   78  53  41 W9        29.98F
LANCASTER      SUNNY     81  58  45 W7        29.99S
ZANESVILLE     SUNNY     82  54  37 SW8       29.98F
NEW PHILLY     MOSUNNY   79  58  48 SW8       29.98F
$$


USA.gov is the U.S. government's official web portal to all federal, state and local government web resources and services.